User: anonymous   Login
Location: Napoli
(40.8330°N, 14.2500°E)
Time: 00:52:59
(UTC+02:00)
Language:

ISS - Orbit

View from above orbital plane
View from above orbital plane
View from above satellite
View from above satellite

Ground track
Ground track

The orbit data is extracted from the following two-line orbital elements,

1 25544U 98067A   21172.53709909  .00000969  00000-0  25752-4 0  9994
2 25544  51.6447 321.2139 0003364 114.9163 245.2176 15.49007099289270
Epoch (UTC): 21 June 2021 12:53:25
Eccentricity: 0.0003364
inclination: 51.6447°
perigee height: 417 km
apogee height: 422 km
right ascension of ascending node: 321.2139°
argument of perigee: 114.9163°
revolutions per day: 15.49007099
mean anomaly at epoch: 245.2176°
orbit number at epoch: 28927

The dashed part of the orbit path shows where the satellite is in the earth's shadow,  

DLR